Satellite-Ground Cal/Val Region Overpasses Predictions

Prediction of Satellite NPP Overpassing Cal/Val Region: PacNW

Region Location: (Latitude: 10.00, Longitude: 139.50) to (Latitude: 22.70, Longitude: 165.60).

Table of predicted overpasses for the next 14.0 days since TLE Epoch: 2/17/2024
Interval Starting Time Starting Location Ending Time Ending Location
1 02/17/2024 03:56:01 ( 10.05, 140.80) 02/17/2024 03:57:36 ( 15.63, 139.50)
2 02/17/2024 14:46:24 ( 22.67, 163.41) 02/17/2024 14:49:59 ( 10.04, 160.41)
3 02/18/2024 03:36:59 ( 10.05, 145.56) 02/18/2024 03:40:34 ( 22.67, 142.55)
4 02/18/2024 14:30:24 ( 11.93, 165.60) 02/18/2024 14:30:56 ( 10.05, 165.17)
5 02/18/2024 16:08:51 ( 22.66, 142.79) 02/18/2024 16:12:26 ( 10.04, 139.79)
6 02/19/2024 03:17:56 ( 10.05, 150.32) 02/19/2024 03:21:31 ( 22.67, 147.31)
7 02/19/2024 15:49:49 ( 22.66, 147.55) 02/19/2024 15:53:24 ( 10.04, 144.55)
8 02/20/2024 02:58:54 ( 10.05, 155.08) 02/20/2024 03:02:29 ( 22.67, 152.07)
9 02/20/2024 15:30:46 ( 22.66, 152.31) 02/20/2024 15:34:21 ( 10.04, 149.31)
10 02/21/2024 02:39:51 ( 10.05, 159.84) 02/21/2024 02:43:26 ( 22.67, 156.83)
11 02/21/2024 15:11:44 ( 22.66, 157.07) 02/21/2024 15:15:19 ( 10.04, 154.07)
12 02/22/2024 02:20:49 ( 10.05, 164.60) 02/22/2024 02:24:24 ( 22.68, 161.59)
13 02/22/2024 14:52:42 ( 22.65, 161.83) 02/22/2024 14:56:17 ( 10.03, 158.83)
14 02/23/2024 03:43:15 ( 10.01, 143.99) 02/23/2024 03:46:51 ( 22.69, 140.98)
15 02/23/2024 14:34:48 ( 18.60, 165.60) 02/23/2024 14:37:14 ( 10.03, 163.59)
16 02/23/2024 16:15:08 ( 22.70, 141.23) 02/23/2024 16:17:09 ( 15.60, 139.51)
17 02/24/2024 03:24:13 ( 10.02, 148.75) 02/24/2024 03:27:49 ( 22.70, 145.74)
18 02/24/2024 15:56:06 ( 22.69, 145.99) 02/24/2024 15:59:42 ( 10.01, 142.97)
19 02/25/2024 03:05:10 ( 10.03, 153.51) 02/25/2024 03:08:45 ( 22.65, 150.51)
20 02/25/2024 15:37:03 ( 22.68, 150.75) 02/25/2024 15:40:38 ( 10.06, 147.75)
21 02/26/2024 02:46:08 ( 10.04, 158.27) 02/26/2024 02:49:43 ( 22.66, 155.27)
22 02/26/2024 15:18:01 ( 22.67, 155.51) 02/26/2024 15:21:36 ( 10.05, 152.50)
23 02/27/2024 02:27:05 ( 10.05, 163.03) 02/27/2024 02:30:40 ( 22.67, 160.02)
24 02/27/2024 14:58:58 ( 22.65, 160.26) 02/27/2024 15:02:33 ( 10.03, 157.26)
25 02/28/2024 02:10:42 ( 19.40, 165.59) 02/28/2024 02:11:38 ( 22.69, 164.78)
26 02/28/2024 03:49:32 ( 10.02, 142.42) 02/28/2024 03:53:01 ( 22.29, 139.51)
27 02/28/2024 14:39:55 ( 22.70, 165.04) 02/28/2024 14:43:31 ( 10.02, 162.02)
28 02/28/2024 16:21:25 ( 22.69, 139.66) 02/28/2024 16:21:35 ( 22.10, 139.51)
29 02/29/2024 03:30:30 ( 10.03, 147.18) 02/29/2024 03:34:04 ( 22.66, 144.18)
30 02/29/2024 16:02:22 ( 22.67, 144.42) 02/29/2024 16:05:57 ( 10.05, 141.41)
31 03/01/2024 03:11:27 ( 10.05, 151.94) 03/01/2024 03:15:02 ( 22.67, 148.93)
32 03/01/2024 15:43:20 ( 22.65, 149.17) 03/01/2024 15:46:55 ( 10.03, 146.17)
